Date,TemperatureHighF,TemperatureAvgF,TemperatureLowF,DewpointHighF,DewpointAvgF,DewpointLowF,HumidityHigh,HumidityAvg,HumidityLow,PressureMaxIn,PressureMinIn,WindSpeedMaxMPH,WindSpeedAvgMPH,GustSpeedMaxMPH,PrecipitationSumIn
2013-1-1,45.9,38.0,30.9,44.5,37.3,30.7,100,97,87,30.32,30.19,2,0,2,0.00
2013-1-2,46.6,36.1,28.7,42.9,34.5,28.4,99,94,72,30.21,30.06,0,0,1,0.02
2013-1-3,54.3,41.0,29.4,47.0,38.9,28.9,100,93,70,30.27,30.03,5,1,8,0.04
2013-1-4,50.2,46.5,43.2,48.2,45.9,42.8,100,98,91,30.28,30.12,2,0,4,0.01
2013-1-5,46.5,43.0,40.1,45.7,42.6,39.8,100,99,95,30.17,30.08,2,0,2,0.06
2013-1-6,49.6,44.4,40.5,47.0,43.6,40.5,100,97,86,30.22,30.13,2,0,3,0.03
2013-1-7,52.1,48.3,44.3,52.1,48.2,44.0,100,100,98,30.25,30.13,1,0,4,0.06
2013-1-8,57.7,49.3,44.0,53.6,48.0,43.6,100,96,81,30.25,29.98,6,1,12,0.00
2013-1-9,51.4,42.3,35.2,47.4,40.8,34.7,100,95,78,30.04,29.84,11,2,11,1.04
2013-1-10,42.0,37.1,33.5,41.0,36.5,33.2,100,98,87,30.21,30.02,5,1,12,0.54
2013-1-11,42.9,36.1,32.1,41.8,35.6,31.9,100,98,90,30.29,30.16,2,0,3,0.16
2013-1-12,41.2,33.8,27.5,37.0,32.8,27.0,100,96,80,30.35,30.25,0,0,2,0.00
2013-1-13,37.6,29.4,24.0,33.6,28.1,23.3,98,95,83,30.42,30.35,2,0,3,0.01
2013-1-14,41.6,31.2,23.5,35.0,29.0,22.8,99,92,73,30.51,30.42,1,0,2,0.01
2013-1-15,47.0,34.1,25.6,39.2,31.8,24.9,99,92,74,30.55,30.48,2,0,4,0.00
2013-1-16,51.2,36.7,27.0,42.4,34.2,26.5,99,91,70,30.50,30.33,2,0,3,0.01
2013-1-17,59.2,40.6,30.5,48.9,38.0,30.3,100,92,61,30.33,30.16,2,0,3,0.01
2013-1-18,50.3,37.4,27.5,45.5,36.1,27.0,99,95,83,30.23,30.16,1,0,3,0.01
2013-1-19,48.7,34.9,26.4,43.5,33.6,25.7,99,95,82,30.27,30.18,2,0,3,0.01
2013-1-20,50.1,36.4,25.6,43.5,34.6,24.9,99,94,76,30.26,30.14,2,0,3,0.00
2013-1-21,54.1,38.1,27.8,42.4,34.0,27.3,99,87,44,30.18,30.06,1,0,2,0.02
2013-1-22,36.2,35.0,33.4,35.4,34.2,32.9,98,97,97,30.06,30.04,0,0,0,0.00
2013-1-23,44.7,43.7,42.2,44.7,43.5,41.9,100,99,99,30.15,30.05,1,0,2,0.65
2013-1-24,55.2,45.9,38.3,53.4,45.2,38.0,100,97,90,30.15,30.07,2,0,5,0.05
2013-1-25,51.7,46.7,36.7,51.7,46.3,36.2,100,99,93,30.12,30.00,2,0,3,0.24
2013-1-26,48.4,41.7,37.0,47.4,41.0,36.7,100,98,83,30.14,30.00,5,0,11,0.50
2013-1-27,44.3,40.1,36.7,44.3,39.9,36.4,100,99,96,30.22,30.12,4,0,6,0.59
2013-1-28,46.4,43.3,40.0,45.5,42.8,39.7,100,98,94,30.35,30.16,3,1,9,0.27
2013-1-29,47.4,44.3,41.4,46.6,43.7,41.1,99,98,94,30.52,30.35,3,0,9,0.23
2013-1-30,52.2,44.0,39.1,49.4,43.3,38.8,100,97,86,30.55,30.43,1,0,3,0.00
2013-1-31,55.6,43.3,35.5,48.8,41.6,35.2,100,94,76,30.44,30.30,3,0,6,0.01
2013-2-1,59.5,43.3,30.6,50.5,41.0,30.4,100,92,66,30.30,30.12,1,0,2,0.00
2013-2-2,55.4,42.8,33.4,49.3,41.4,33.1,100,95,79,30.32,30.19,5,0,10,0.01
2013-2-3,50.8,46.7,41.8,45.4,44.2,40.7,99,91,77,30.33,30.20,2,0,3,0.00
2013-2-4,53.0,44.1,38.2,48.1,42.4,37.9,100,94,78,30.21,29.99,5,0,6,0.00
2013-2-5,53.2,46.9,41.9,48.0,44.0,41.4,99,90,74,30.12,29.94,6,1,8,0.15
2013-2-6,51.6,44.5,37.4,46.9,42.0,36.6,100,92,72,30.13,29.90,8,1,20,0.38
2013-2-7,40.0,37.0,34.3,39.5,36.6,34.0,99,98,97,30.10,29.98,7,0,7,0.70
2013-2-8,47.6,38.9,33.0,42.8,37.1,32.8,100,94,76,30.27,30.10,5,1,9,0.00
2013-2-9,51.2,39.5,31.8,43.9,37.3,31.3,100,92,68,30.30,30.24,3,0,8,0.00
2013-2-10,50.9,42.6,37.5,44.1,40.1,37.1,99,91,75,30.30,30.25,4,1,7,0.00
2013-2-11,53.6,45.0,40.7,43.1,40.3,37.8,96,84,65,30.41,30.28,4,1,8,0.00
2013-2-12,53.4,46.8,42.4,50.8,45.6,42.0,99,96,86,30.51,30.42,4,0,7,0.04
2013-2-13,55.1,47.7,41.4,49.1,45.6,41.1,99,93,78,30.50,30.42,3,0,7,0.00
2013-2-14,59.5,48.9,42.2,50.7,45.7,41.4,99,90,68,30.50,30.35,6,1,7,0.00
2013-2-15,67.2,47.5,33.9,52.7,42.3,33.6,100,85,47,30.35,30.17,3,0,5,0.00
2013-2-16,51.2,45.4,41.2,47.1,43.4,40.2,98,93,79,30.31,30.25,4,0,8,0.07
2013-2-17,51.1,41.0,33.4,42.1,38.0,32.4,99,89,66,30.29,30.06,6,1,12,0.01
2013-2-18,48.0,38.9,32.0,42.3,36.2,31.4,99,91,70,30.06,29.73,5,0,7,0.04
2013-2-19,47.7,40.2,34.9,41.6,38.2,34.4,99,93,78,30.02,29.63,4,1,9,0.59
2013-2-20,49.6,41.0,36.2,44.1,39.3,35.7,99,94,71,30.15,30.02,6,1,9,0.16
2013-2-21,48.3,41.8,37.1,44.9,40.2,36.8,100,94,78,30.29,30.16,3,0,4,0.01
2013-2-22,50.8,44.7,39.9,45.3,42.6,38.9,97,92,77,30.25,30.03,6,1,10,0.34
2013-2-23,46.4,39.8,34.2,43.1,38.2,33.6,99,94,83,30.45,30.20,4,1,6,0.26
2013-2-24,54.6,40.7,30.7,41.3,36.2,30.2,99,85,58,30.45,30.17,5,1,7,0.00
2013-2-25,49.6,42.9,34.3,44.8,39.7,33.4,98,89,66,30.41,30.16,7,1,11,0.28
2013-2-26,51.9,38.6,29.9,41.6,35.4,29.4,99,89,61,30.41,30.24,5,0,8,0.00
2013-2-27,58.4,47.0,37.9,50.3,44.1,36.9,99,90,62,30.30,30.22,5,0,8,0.09
2013-2-28,57.7,51.7,48.7,54.1,50.4,48.2,100,96,82,30.48,30.23,4,0,7,0.04
2013-3-1,57.9,51.1,46.7,53.1,49.3,46.4,100,94,80,30.48,30.30,4,0,5,0.00
2013-3-2,53.7,49.4,45.2,50.6,48.1,44.1,99,95,82,30.31,30.20,4,1,7,0.03
2013-3-3,55.4,44.4,35.7,44.0,38.5,33.1,96,81,44,30.26,30.14,7,2,11,0.00
2013-3-4,59.1,41.2,28.0,47.7,35.2,27.3,99,82,38,30.13,29.87,4,0,7,0.00
2013-3-5,44.7,41.6,38.9,44.0,40.8,37.0,99,97,89,29.87,29.58,6,0,8,1.29
2013-3-6,49.0,42.2,39.4,45.1,41.3,39.1,99,97,85,29.96,29.55,6,-11,8,0.45
2013-3-7,55.6,41.7,32.3,43.9,38.3,31.8,100,89,59,30.00,29.95,6,1,15,0.03
2013-3-8,54.8,41.0,32.5,45.2,38.3,32.1,99,91,65,30.21,29.99,6,1,13,0.01
2013-3-9,61.7,46.9,37.9,47.2,41.4,37.1,98,83,52,30.47,30.21,6,1,9,0.00
2013-3-10,62.2,45.2,32.1,47.0,39.7,31.6,99,84,39,30.47,30.39,5,1,7,0.00
2013-3-11,63.4,50.2,44.3,54.0,47.4,43.6,99,91,67,30.41,30.23,5,1,9,0.01
2013-3-12,59.4,50.4,47.2,52.1,48.2,46.1,99,92,76,30.23,30.17,6,1,10,0.01
2013-3-13,63.4,49.6,42.8,53.9,46.7,42.3,99,90,68,30.23,30.11,4,1,8,0.00
2013-3-14,62.7,51.1,44.0,49.3,46.1,42.9,98,85,54,30.21,30.07,7,1,10,0.00
2013-3-15,61.7,52.2,47.7,53.7,49.1,46.6,96,89,75,30.22,30.18,5,1,12,0.00
2013-3-16,51.4,47.9,43.1,48.6,46.3,42.2,97,94,85,30.24,30.13,5,1,8,0.23
2013-3-17,52.3,43.1,36.4,43.3,38.7,35.5,99,86,56,30.33,30.23,5,1,9,0.06
2013-3-18,60.2,43.8,30.4,45.0,38.5,29.7,99,84,49,30.27,30.05,5,1,12,0.00
2013-3-19,60.9,49.2,42.5,50.3,45.8,41.7,99,89,59,30.05,29.69,6,1,11,0.28
2013-3-20,53.6,47.7,39.6,51.1,45.1,38.3,96,91,75,30.24,29.66,11,4,15,0.45
2013-3-21,50.5,41.4,36.9,43.6,38.6,34.9,99,90,64,30.38,30.24,6,1,9,0.11
2013-3-22,49.5,40.5,34.0,42.0,36.3,32.2,99,86,54,30.38,30.34,6,1,11,0.08
2013-3-23,53.3,38.9,28.6,41.0,34.1,27.9,98,84,51,30.37,30.20,6,1,8,0.01
2013-3-24,56.1,42.9,33.1,44.1,37.5,32.5,98,83,51,30.22,30.05,5,1,7,0.00
2013-3-25,53.4,44.2,34.0,46.1,41.0,33.1,98,89,71,30.05,29.95,5,1,8,0.00
2013-3-26,59.3,49.4,42.1,47.4,44.0,41.3,99,83,60,30.00,29.91,5,1,6,0.00
2013-3-27,62.9,51.1,44.3,52.8,47.0,42.5,98,87,59,29.96,29.88,5,0,10,0.03
2013-3-28,58.1,50.9,45.6,53.4,48.4,44.8,98,91,74,30.11,29.96,6,0,6,0.03
2013-3-29,70.7,56.0,47.4,56.6,50.9,46.3,99,85,57,30.14,30.06,4,1,6,0.02
2013-3-30,78.2,56.0,42.3,57.5,49.3,41.8,100,82,42,30.09,29.93,9,1,13,0.01
2013-3-31,59.5,53.7,50.8,55.3,52.0,49.6,98,94,81,30.03,29.95,6,0,10,0.02
2013-4-1,56.9,52.1,49.7,53.6,50.8,48.4,99,95,87,30.18,30.02,3,0,7,0.02
2013-4-2,64.9,52.1,46.8,56.2,49.2,46.0,98,91,70,30.21,30.12,6,1,10,0.00
2013-4-3,63.8,51.9,45.7,56.1,49.4,45.4,99,92,73,30.15,29.88,5,0,9,0.04
2013-4-4,59.4,52.8,50.5,56.8,52.0,50.0,99,97,87,29.92,29.70,6,1,12,0.92
2013-4-5,58.0,53.1,50.0,52.7,50.4,49.1,99,91,76,30.00,29.88,7,2,13,0.12
2013-4-6,57.6,52.3,48.2,50.6,49.0,47.4,98,89,71,30.04,29.76,7,2,16,0.20
2013-4-7,54.5,46.8,39.6,51.0,44.4,38.8,98,92,68,30.03,29.77,10,3,17,0.87
2013-4-8,54.5,44.3,38.0,47.4,41.3,37.4,99,90,68,30.28,30.03,5,1,8,0.09
2013-4-9,66.5,49.3,38.1,49.6,42.9,37.4,99,81,36,30.31,30.25,6,1,11,0.00
2013-4-10,54.1,47.7,41.2,52.5,46.3,40.4,99,95,87,30.34,30.25,5,1,10,0.05
2013-4-11,56.9,46.5,37.1,46.9,42.4,36.6,99,86,63,30.35,30.13,7,2,12,0.00
2013-4-12,58.7,46.8,39.0,49.8,43.3,38.2,99,89,67,30.15,29.97,7,1,12,0.03
2013-4-13,53.0,45.2,35.9,44.4,39.9,34.3,97,83,59,30.15,30.03,5,2,11,0.04
2013-4-14,50.5,40.0,34.1,45.6,37.7,33.1,98,92,77,30.15,29.97,5,1,8,0.08
2013-4-15,50.2,45.5,38.7,43.1,40.0,37.0,94,82,65,30.20,30.03,7,3,13,0.21
2013-4-16,56.1,44.9,36.9,46.5,40.8,36.1,99,87,62,30.40,30.20,7,2,12,0.03
2013-4-17,59.2,48.2,40.9,48.2,42.7,39.5,97,82,57,30.48,30.40,6,2,16,0.00
2013-4-18,62.7,51.1,42.5,49.8,45.1,41.7,98,81,58,30.47,30.36,5,1,10,0.00
2013-4-19,55.5,50.1,46.0,52.9,48.6,44.8,99,95,89,30.37,30.29,5,1,11,0.09
2013-4-20,60.9,51.0,45.1,52.8,47.5,42.5,99,89,70,30.35,30.26,7,2,10,0.01
2013-4-21,65.6,52.4,45.0,53.2,46.7,42.5,92,82,58,30.30,30.21,6,2,11,0.00
2013-4-22,69.9,55.8,44.6,51.1,45.8,40.8,97,72,35,30.25,30.16,7,3,11,0.00
2013-4-23,71.1,52.4,36.4,45.4,39.8,34.4,97,67,26,30.22,30.08,9,2,16,0.00
2013-4-24,81.1,56.1,35.5,50.4,40.6,32.1,98,64,17,30.14,29.89,5,1,9,0.00
2013-4-25,71.9,54.2,39.1,52.4,44.4,38.3,98,73,37,30.14,29.95,5,1,9,0.00
2013-4-26,75.1,52.1,43.4,59.4,47.2,42.8,98,85,49,30.28,30.14,8,1,10,0.00
2013-4-27,66.3,51.6,43.8,53.7,46.3,43.3,99,84,49,30.30,30.24,5,1,10,0.00
2013-4-28,67.1,53.2,45.8,56.0,47.8,43.6,95,83,60,30.29,30.19,5,1,10,0.00
2013-4-29,58.7,50.5,41.5,50.9,45.4,37.6,97,84,54,30.21,30.15,8,2,11,0.00
2013-4-30,58.2,46.0,33.1,44.1,37.5,31.8,97,74,47,30.36,30.21,8,2,12,0.00
2013-5-1,69.8,50.3,32.3,47.4,39.6,31.1,97,71,29,30.39,30.29,6,1,16,0.00
2013-5-2,78.3,55.5,38.1,51.1,43.2,37.3,98,69,33,30.31,30.19,8,2,13,0.00
2013-5-3,73.7,53.9,38.3,53.0,45.5,37.5,98,77,44,30.26,30.04,8,2,12,0.00
2013-5-4,84.0,63.1,38.7,56.7,44.0,35.4,98,59,26,30.05,29.68,6,2,11,0.00
2013-5-5,84.6,66.2,51.4,52.2,44.7,34.9,95,50,23,29.82,29.58,10,2,16,0.04
2013-5-6,70.7,57.4,46.8,58.0,50.5,46.0,99,80,47,29.95,29.83,6,1,11,0.00
2013-5-7,63.1,54.7,50.4,55.7,50.5,48.2,95,86,73,30.06,29.92,5,2,11,0.00
2013-5-8,66.1,54.7,50.0,56.0,50.3,47.5,97,86,66,30.16,30.05,7,1,9,0.01
2013-5-9,70.6,55.1,48.8,58.9,50.6,47.2,95,85,64,30.19,30.09,5,1,11,0.00
2013-5-10,66.5,53.1,48.1,57.9,49.6,46.7,97,88,69,30.23,30.17,7,1,14,0.00
2013-5-11,78.0,59.9,47.8,61.7,53.4,46.7,97,81,47,30.24,30.05,7,1,13,0.00
2013-5-12,70.5,59.5,53.6,61.2,55.5,53.0,99,87,66,30.14,30.06,8,1,12,0.00
2013-5-13,65.9,56.0,47.7,58.1,53.2,45.8,97,91,73,30.21,30.06,11,1,13,0.00
2013-5-14,66.7,53.2,45.4,53.0,46.9,42.6,99,81,54,30.20,30.11,6,1,11,0.00
2013-5-15,63.2,53.4,44.4,52.8,48.2,43.4,98,84,59,30.13,30.00,4,1,7,0.03
2013-5-16,58.1,53.8,50.1,52.9,51.0,49.3,98,90,76,30.01,29.96,7,1,11,0.07
2013-5-17,60.4,53.1,48.2,55.0,49.7,47.4,99,89,72,30.12,30.00,5,0,7,0.09
2013-5-18,61.6,52.8,46.3,54.0,49.5,45.5,98,89,72,30.32,30.10,8,1,12,0.02
2013-5-19,62.2,54.3,47.1,53.4,50.2,45.3,99,87,69,30.40,30.29,7,2,14,0.11
2013-5-20,69.8,53.4,42.6,57.8,48.0,41.6,99,84,57,30.31,29.99,8,1,13,0.00
2013-5-21,53.9,48.0,40.8,52.2,45.4,38.9,98,91,70,30.10,29.85,8,1,11,0.61
2013-5-22,49.1,45.0,40.3,47.2,43.9,39.3,98,96,92,30.09,30.04,4,1,7,0.59
2013-5-23,59.7,49.7,42.0,50.6,46.0,41.5,99,88,61,30.07,30.02,7,1,13,0.16
2013-5-24,56.2,50.7,44.9,48.7,46.5,44.1,99,86,68,30.11,30.06,4,1,9,0.05
2013-5-25,62.7,52.8,42.8,53.6,48.5,42.1,99,87,62,30.08,29.95,5,1,12,0.10
2013-5-26,61.4,54.7,50.8,53.3,51.1,49.3,98,88,70,30.07,29.96,8,2,13,0.05
2013-5-27,61.4,54.4,51.0,57.0,52.7,50.0,99,94,81,29.98,29.79,7,1,11,0.42
2013-5-28,63.0,55.4,50.7,54.4,51.6,48.9,98,88,66,29.96,29.75,7,1,13,0.10
2013-5-29,59.0,53.7,48.6,54.2,51.1,47.8,97,91,81,30.09,29.73,8,3,11,0.13
2013-5-30,63.6,53.6,47.2,50.8,48.1,44.2,99,83,52,30.24,30.09,5,1,8,0.00
2013-5-31,67.2,53.5,42.1,55.6,47.7,41.6,99,82,61,30.29,30.21,7,2,15,0.00
2013-6-1,72.5,56.7,45.4,58.6,49.7,44.4,98,80,46,30.24,30.06,6,1,8,0.00
2013-6-2,66.8,56.3,51.9,59.8,53.1,49.2,99,90,73,30.06,30.01,10,3,15,0.07
2013-6-3,68.7,56.9,49.4,58.4,51.6,47.8,96,84,64,30.05,29.97,9,3,14,0.00
2013-6-4,74.2,58.0,45.9,61.1,51.7,45.1,99,82,51,30.02,29.95,6,2,12,0.00
2013-6-5,73.8,58.6,52.0,62.3,54.4,51.2,99,87,61,30.07,30.00,7,2,12,0.00
2013-6-6,68.2,56.4,51.3,58.7,52.6,49.2,98,88,67,30.08,30.00,6,2,11,0.01
2013-6-7,77.7,60.1,50.6,57.6,52.0,39.2,97,78,28,30.11,30.07,8,2,13,0.00
2013-6-8,75.7,60.3,51.0,63.6,53.1,48.0,99,79,51,30.10,30.01,9,2,14,0.00
2013-6-9,66.6,56.0,46.4,55.2,49.4,45.4,97,80,58,30.03,29.97,9,3,17,0.00
2013-6-10,63.9,53.5,41.8,50.9,46.9,40.7,97,80,57,30.03,29.93,9,3,19,0.00
2013-6-11,64.8,55.9,48.3,51.9,48.5,45.6,96,78,50,30.16,30.04,6,2,12,0.00
2013-6-12,60.6,52.7,44.7,52.6,48.1,43.7,98,85,67,30.22,30.14,4,1,7,0.00
2013-6-13,63.1,53.4,46.8,54.3,49.5,45.5,98,87,69,30.30,30.21,6,1,15,0.02
2013-6-14,70.6,56.5,44.9,56.4,50.3,44.0,99,82,55,30.28,29.96,7,2,12,0.00
2013-6-15,66.7,55.1,48.1,58.9,51.8,47.0,98,89,72,30.05,29.93,7,1,12,0.00
2013-6-16,68.2,56.0,46.7,58.0,51.4,45.7,98,86,67,30.13,30.05,8,1,11,0.00
2013-6-17,71.8,56.9,45.4,57.0,51.7,44.6,99,84,53,30.12,29.99,8,1,13,0.00
2013-6-18,64.9,55.0,44.0,53.2,50.2,43.2,98,85,60,30.03,29.98,4,1,7,0.08
2013-6-19,63.3,56.4,49.6,55.2,51.4,49.1,99,84,65,30.13,29.97,7,2,8,0.16
2013-6-20,67.5,57.7,51.3,55.9,51.8,50.0,97,82,61,30.13,30.06,5,1,10,0.00
2013-6-21,72.6,58.4,47.0,57.3,51.9,46.1,99,81,55,30.14,30.09,6,2,12,0.00
2013-6-22,75.2,59.9,46.7,59.5,53.4,46.2,99,81,47,30.09,29.86,6,1,9,0.00
2013-6-23,70.5,61.2,54.3,64.9,58.8,52.9,98,92,70,29.86,29.64,6,1,8,0.16
2013-6-24,64.5,57.4,52.8,58.4,54.9,51.9,99,92,69,29.73,29.66,2,0,8,0.12
2013-6-25,66.0,61.1,56.3,60.2,56.8,55.1,98,87,70,29.84,29.67,6,1,9,0.20
2013-6-26,73.4,64.4,57.8,62.8,59.6,57.2,99,86,60,29.99,29.83,4,0,7,0.08
2013-6-27,76.4,65.1,56.4,66.2,60.6,55.8,99,86,69,30.13,29.98,6,1,15,0.00
2013-6-28,81.4,67.0,54.3,67.4,58.7,53.7,99,78,47,30.13,30.04,8,2,12,0.00
2013-6-29,89.8,68.6,53.5,67.4,59.0,52.7,98,75,38,30.10,29.95,6,1,11,0.00
2013-6-30,79.4,66.0,57.1,66.7,60.1,56.3,99,83,56,29.97,29.90,4,1,8,0.00
2013-7-1,77.3,64.8,56.6,65.9,60.3,55.5,98,86,65,30.03,29.93,5,2,8,0.00
2013-7-2,75.2,63.8,57.5,65.9,59.6,55.9,98,87,70,30.07,30.01,6,2,11,0.00
2013-7-3,75.9,63.5,54.6,62.4,56.6,52.3,95,80,53,30.11,30.04,6,2,12,0.00
2013-7-4,70.6,59.1,47.9,58.0,53.2,47.1,99,82,60,30.11,30.02,8,3,17,0.00
2013-7-5,71.5,61.2,52.5,58.1,53.6,50.6,95,77,58,30.04,29.92,9,4,15,0.00
2013-7-6,71.5,58.9,47.2,58.6,53.2,46.1,97,83,62,29.95,29.86,8,3,14,0.00
2013-7-7,71.1,60.8,56.2,60.4,55.4,53.1,91,83,67,29.98,29.90,9,3,17,0.00
2013-7-8,74.0,61.6,54.3,60.2,55.0,51.7,94,80,60,30.02,29.97,6,2,10,0.00
2013-7-9,75.3,60.3,52.8,63.8,55.6,51.8,98,86,60,30.07,30.01,5,2,12,0.00
2013-7-10,69.4,58.4,52.4,59.2,53.0,49.3,96,83,64,30.07,29.97,8,3,13,0.00
2013-7-11,70.8,56.8,46.2,55.6,49.8,45.4,97,79,56,30.03,29.96,7,2,17,0.00
2013-7-12,69.5,57.5,49.4,53.7,49.9,48.1,97,78,49,30.07,29.99,7,2,14,0.00
2013-7-13,73.3,57.7,45.8,57.8,50.3,44.7,98,79,51,30.08,29.99,8,2,14,0.00
2013-7-14,72.9,58.4,49.1,58.7,51.6,47.8,98,80,53,30.05,29.96,6,2,11,0.00
2013-7-15,72.4,58.2,49.0,57.9,52.1,47.6,97,82,57,29.99,29.80,5,1,10,0.00
2013-7-16,64.6,57.4,50.0,58.6,53.7,48.9,97,88,79,30.03,29.80,4,1,5,0.00
2013-7-17,71.6,60.4,51.8,58.4,54.3,49.1,94,81,61,30.16,30.03,4,1,9,0.00
2013-7-18,73.3,57.6,45.0,60.0,51.6,44.2,98,82,61,30.16,30.09,7,2,13,0.00
2013-7-19,70.4,58.4,52.4,59.3,53.5,50.5,95,84,65,30.13,30.05,8,2,13,0.00
2013-7-20,70.8,58.6,54.2,59.9,54.0,51.9,94,85,65,30.08,29.94,6,2,11,0.00
2013-7-21,71.4,59.4,52.2,60.6,54.4,51.6,98,85,61,29.96,29.87,6,2,11,0.00
2013-7-22,75.5,60.6,51.5,63.5,55.2,49.9,98,84,59,29.98,29.92,5,1,9,0.00
2013-7-23,76.9,57.9,49.2,63.0,53.0,48.6,98,85,57,30.05,29.94,5,1,8,0.00
2013-7-24,72.7,57.4,49.2,59.7,52.1,48.1,97,84,60,30.04,29.97,4,1,9,0.00
2013-7-25,75.5,58.9,48.1,61.0,51.8,47.3,98,80,51,30.03,29.97,6,1,10,0.00
2013-7-26,73.6,55.6,48.1,56.7,50.2,47.0,97,84,54,30.14,30.03,7,1,12,0.00
2013-7-27,72.3,58.7,48.5,57.1,51.9,47.3,97,80,56,30.15,30.02,9,3,16,0.00
2013-7-28,70.3,58.7,48.1,56.4,52.1,46.8,98,80,59,30.04,29.95,8,2,13,0.00
2013-7-29,70.9,58.0,47.8,57.7,52.3,46.7,98,83,61,30.07,29.94,6,2,10,0.00
2013-7-30,67.7,59.3,53.9,56.7,53.8,51.8,94,83,65,30.13,30.06,5,1,8,0.00
2013-7-31,62.2,58.5,56.2,57.9,55.6,53.5,95,90,81,30.13,30.08,3,0,5,0.00
2013-8-1,67.7,59.5,55.4,59.3,56.0,53.6,98,89,71,30.13,30.07,4,1,6,0.02
2013-8-2,74.1,62.1,53.9,58.8,55.5,52.1,96,80,56,30.12,30.04,7,2,12,0.00
2013-8-3,76.8,60.4,51.7,62.0,55.3,50.3,98,85,60,30.06,29.96,6,2,13,0.00
2013-8-4,72.4,59.2,53.8,61.7,55.5,53.2,98,88,66,30.00,29.94,5,1,10,0.00
2013-8-5,74.8,59.3,51.0,62.2,54.8,49.3,98,86,63,30.00,29.93,4,1,7,0.00
2013-8-6,71.2,57.5,50.6,59.7,52.7,49.5,98,86,63,30.02,29.95,6,1,10,0.00
2013-8-7,60.9,56.0,52.8,56.0,52.9,51.0,95,89,81,30.08,30.00,3,0,6,0.00
2013-8-8,75.1,60.6,52.8,62.1,55.5,51.7,96,84,60,30.08,29.94,7,2,10,0.00
2013-8-9,77.3,60.0,54.5,62.1,56.3,52.9,98,89,55,29.98,29.86,6,1,11,0.93
2013-8-10,63.1,59.0,56.3,59.9,57.5,55.8,99,95,87,30.05,29.95,2,0,5,0.03
2013-8-11,70.0,60.1,54.1,60.6,56.4,53.0,98,88,68,30.05,30.00,5,1,7,0.01
2013-8-12,73.6,59.3,50.6,59.4,54.0,50.0,99,84,58,30.07,30.01,5,1,10,0.01
2013-8-13,80.6,60.2,45.6,61.8,53.2,45.1,99,80,51,30.07,29.95,5,1,10,0.00
2013-8-14,81.6,63.5,49.2,63.7,56.3,48.6,99,81,38,29.99,29.90,7,1,8,0.00
2013-8-15,76.4,66.6,62.5,67.2,62.8,60.7,95,88,73,29.97,29.91,5,1,8,0.00
2013-8-16,78.2,66.1,57.6,65.4,60.9,55.4,98,84,57,30.05,29.94,5,1,11,0.00
2013-8-17,74.6,62.0,51.7,63.8,57.7,51.2,99,87,67,30.08,30.03,6,2,9,0.01
2013-8-18,79.5,63.3,52.6,63.9,57.5,51.8,99,83,55,30.09,30.01,7,2,13,0.01
2013-8-19,78.5,63.5,56.3,65.1,58.1,54.3,99,85,51,30.08,30.00,7,2,15,0.00
2013-8-20,77.4,62.3,52.2,60.8,54.2,50.4,98,77,46,30.05,29.90,8,2,13,0.00
2013-8-21,80.3,61.2,47.5,60.6,53.0,46.7,99,78,47,29.94,29.84,5,1,9,0.01
2013-8-22,64.1,58.8,55.1,58.5,55.5,53.1,96,89,81,29.94,29.89,4,0,8,0.00
2013-8-23,67.7,60.5,55.1,60.3,57.1,53.7,98,89,73,29.95,29.89,3,0,6,0.01
2013-8-24,72.7,60.8,51.5,60.7,55.4,51.0,99,84,61,29.90,29.84,6,1,9,0.00
2013-8-25,65.3,57.2,52.4,60.7,55.3,51.6,99,94,80,29.93,29.87,4,0,7,0.06
2013-8-26,78.9,63.6,51.3,59.4,53.7,47.4,99,75,34,29.93,29.89,6,1,10,0.01
2013-8-27,78.4,66.1,57.2,62.2,58.8,54.6,94,78,56,29.93,29.80,6,1,8,0.01
2013-8-28,79.9,66.0,57.7,65.4,60.8,57.1,99,84,58,29.88,29.80,5,1,7,0.00
2013-8-29,77.3,66.7,60.0,67.8,62.4,59.2,99,87,64,30.06,29.83,6,1,12,0.19
2013-8-30,79.2,67.5,57.4,66.3,62.5,56.6,99,86,58,30.09,30.01,5,1,8,0.01
2013-8-31,72.5,60.3,54.1,62.9,57.3,53.8,100,91,70,30.01,29.89,7,1,10,0.00
2013-9-1,82.7,66.2,54.3,62.6,58.0,54.0,100,78,42,29.92,29.77,7,1,10,0.01
2013-9-2,79.0,67.6,56.7,62.3,58.3,52.5,98,75,45,29.92,29.84,5,1,10,0.00
2013-9-3,76.3,63.0,52.3,60.3,56.5,51.8,100,81,56,29.99,29.91,6,1,9,0.00
2013-9-4,73.7,62.1,53.8,62.0,57.4,53.3,100,86,60,30.04,29.98,4,1,12,0.00
2013-9-5,64.8,60.2,57.6,62.4,59.0,56.8,99,96,88,30.12,29.98,2,0,6,0.09
2013-9-6,75.0,63.0,56.6,62.5,58.4,55.6,100,86,58,30.16,30.05,6,1,8,0.00
2013-9-7,77.2,61.2,50.8,64.0,57.1,50.5,100,88,62,30.05,29.90,5,1,9,0.00
2013-9-8,78.7,64.1,56.3,66.2,60.0,56.3,100,88,64,30.00,29.89,6,1,12,0.01
2013-9-9,79.8,63.3,56.0,66.5,59.0,55.3,100,87,61,29.96,29.83,6,1,12,0.01
2013-9-10,84.5,64.3,52.8,68.6,58.2,52.1,100,83,55,29.85,29.69,6,1,8,0.00
2013-9-11,74.8,61.1,54.1,64.1,57.6,53.7,100,89,66,29.97,29.83,4,1,8,0.00
2013-9-12,66.3,62.0,58.8,61.0,59.1,57.8,98,90,81,29.97,29.94,4,0,6,0.00
2013-9-13,69.4,61.1,57.4,61.6,58.5,56.7,99,91,76,29.97,29.83,5,1,7,0.00
2013-9-14,62.9,59.9,57.8,60.0,58.4,57.2,99,95,88,29.84,29.76,4,0,6,0.02
2013-9-15,67.4,60.6,57.4,60.2,57.1,54.8,100,89,73,29.90,29.75,7,1,12,0.00
2013-9-16,73.4,62.1,56.8,59.7,56.3,54.3,94,82,55,29.96,29.86,5,1,7,0.00
2013-9-17,66.5,59.4,51.9,59.4,56.5,51.2,99,90,69,30.04,29.84,7,1,9,0.23
2013-9-18,73.4,57.9,50.3,59.0,53.6,50.0,100,87,51,30.07,29.94,4,1,10,0.01
2013-9-19,72.8,56.5,44.2,58.4,51.2,43.9,100,84,55,29.94,29.79,5,1,9,0.00
2013-9-20,62.8,55.1,47.0,62.2,54.3,46.7,100,97,81,29.79,29.66,6,0,8,0.42
2013-9-21,65.2,57.7,51.2,59.9,55.1,50.6,100,92,72,29.84,29.66,8,1,15,1.64
2013-9-22,64.6,57.2,51.0,58.4,54.4,50.5,100,91,73,29.91,29.74,6,1,16,0.05
2013-9-23,67.8,58.9,54.1,58.4,55.4,53.1,99,89,63,30.01,29.91,5,1,11,0.02
2013-9-24,64.0,55.8,48.0,56.5,52.6,47.5,99,90,64,29.98,29.91,6,1,10,1.59
2013-9-25,57.4,49.3,44.6,53.6,48.3,44.1,100,97,82,30.06,29.90,5,0,6,0.40
2013-9-26,64.0,50.5,41.6,55.1,47.7,41.3,100,91,64,30.18,30.05,6,1,11,0.01
2013-9-27,62.7,52.2,41.6,57.4,50.7,41.3,100,95,77,30.19,30.01,4,0,6,0.08
2013-9-28,65.1,59.2,52.5,59.5,57.3,52.0,100,94,78,30.00,29.63,11,3,18,1.86
2013-9-29,61.3,56.8,52.8,60.8,55.9,52.5,100,97,86,29.78,29.57,12,4,23,3.24
2013-9-30,61.4,54.3,48.1,57.6,52.0,47.8,100,92,70,30.04,29.74,6,1,8,0.19
2013-10-1,62.5,51.7,43.7,56.4,49.8,43.2,100,94,70,30.18,30.02,3,0,7,0.28
2013-10-2,60.4,48.7,40.8,52.6,45.9,40.5,100,91,62,30.20,30.09,5,1,8,0.16
2013-10-3,61.6,50.2,44.7,53.8,47.4,44.1,100,91,63,30.34,30.20,3,1,5,0.03
2013-10-4,72.4,51.1,36.2,53.2,45.4,35.8,100,84,32,30.34,30.23,3,0,6,0.00
2013-10-5,75.7,54.2,38.4,58.1,46.2,37.9,100,78,40,30.24,30.09,2,0,4,0.01
2013-10-6,76.7,55.1,41.2,56.7,45.1,32.1,100,76,20,30.09,29.98,7,1,8,0.00
2013-10-7,62.5,53.1,47.0,56.6,50.5,46.2,100,92,66,30.17,30.03,4,0,7,0.15
2013-10-8,55.4,49.2,45.2,54.0,48.6,44.9,100,98,92,30.18,30.00,2,0,4,0.14
2013-10-9,59.9,49.0,42.7,51.9,46.5,42.6,100,92,64,30.01,29.94,3,1,6,0.01
2013-10-10,63.0,50.4,40.8,52.0,46.9,40.5,100,89,56,30.07,29.94,5,1,10,0.01
2013-10-11,59.4,52.5,47.2,52.2,48.0,45.3,95,85,67,30.10,30.07,5,1,6,0.00
2013-10-12,56.9,48.9,43.3,53.8,47.9,42.7,99,96,83,30.11,30.04,3,0,5,0.12
2013-10-13,61.1,49.2,42.7,53.9,47.1,42.4,100,93,70,30.22,30.11,4,1,10,0.02
2013-10-14,66.8,49.2,36.8,53.6,45.2,36.5,100,88,54,30.25,30.15,3,0,7,0.00
2013-10-15,70.3,49.9,36.2,53.8,44.6,35.7,100,85,46,30.19,30.04,3,0,5,0.01
2013-10-16,68.6,50.1,36.9,55.9,46.5,36.3,100,89,59,30.12,30.03,2,0,5,0.01
2013-10-17,66.2,51.9,46.1,57.9,50.1,45.8,100,94,72,30.14,30.05,2,0,4,0.00
2013-10-18,71.7,53.2,44.0,61.0,50.2,43.7,100,91,62,30.07,29.98,2,0,3,0.02
2013-10-19,68.5,50.9,41.8,58.5,48.7,41.5,100,93,67,30.10,30.03,3,0,4,0.00
2013-10-20,66.1,51.1,46.5,59.8,50.0,46.3,100,96,76,30.10,29.99,2,0,3,0.02
2013-10-21,63.2,50.1,44.9,58.9,49.3,44.6,100,97,84,30.01,29.92,2,0,3,0.01
2013-10-22,53.4,49.8,48.1,52.6,49.4,47.8,100,99,96,30.01,29.97,2,0,5,0.01
2013-10-23,52.8,49.0,46.8,51.4,48.6,46.5,100,99,95,30.00,29.95,2,0,5,0.01
2013-10-24,52.7,49.6,47.0,51.9,49.2,47.0,100,99,96,30.10,29.97,1,0,2,0.01
2013-10-25,52.9,50.6,49.0,51.2,49.9,48.7,100,98,93,30.19,30.10,1,0,3,0.02
2013-10-26,62.1,51.5,47.4,56.5,50.0,47.1,100,95,79,30.19,30.13,3,1,7,0.01
2013-10-27,54.4,50.6,48.5,52.0,48.9,47.4,98,94,86,30.15,29.81,8,1,14,0.01
2013-10-28,59.3,49.2,41.0,50.4,46.1,40.0,98,90,67,29.83,29.71,2,0,5,0.00
2013-10-29,57.7,43.2,34.4,50.3,40.5,33.9,100,91,69,30.05,29.83,3,0,5,0.01
2013-10-30,58.5,42.9,32.5,49.8,39.2,31.9,100,88,56,30.19,30.05,3,0,4,0.01
2013-10-31,63.1,51.9,42.7,57.2,49.5,41.7,98,92,69,30.22,30.17,2,0,4,0.00
2013-11-1,66.8,54.7,49.5,59.6,53.0,49.0,100,95,73,30.19,29.93,3,0,6,0.00
2013-11-2,56.1,50.2,43.4,52.5,48.2,42.8,100,93,73,30.18,29.87,6,1,11,0.36
2013-11-3,52.4,45.1,39.7,49.1,43.6,39.4,100,95,79,30.23,30.16,2,0,4,0.11
2013-11-4,51.7,46.1,40.1,50.1,45.4,39.8,100,97,90,30.20,30.14,2,0,3,0.07
2013-11-5,58.6,53.4,48.8,57.8,53.2,48.7,100,99,92,30.24,30.12,1,0,4,0.33
2013-11-6,59.9,55.1,52.6,59.0,54.8,52.6,100,99,95,30.26,30.10,2,0,4,0.01
2013-11-7,55.6,51.1,44.6,55.2,50.9,44.6,100,99,97,30.17,30.01,6,1,13,0.78
2013-11-8,54.7,45.4,37.9,51.0,44.8,37.6,100,98,85,30.20,30.05,2,0,3,0.00
2013-11-9,58.4,46.3,36.1,52.1,44.3,35.8,100,93,68,30.06,29.96,1,0,2,0.01
2013-11-10,60.4,48.1,40.5,54.2,46.9,40.2,100,96,78,30.04,29.97,3,0,3,0.00
2013-11-11,60.8,52.2,45.0,57.2,50.9,45.0,100,96,84,30.05,29.94,3,0,4,0.00
2013-11-12,60.9,54.8,52.2,58.9,54.4,51.6,100,98,89,30.39,30.01,2,0,4,0.12
2013-11-13,59.5,51.3,41.9,55.0,50.0,41.4,100,96,83,30.40,30.23,4,1,5,0.01
2013-11-14,50.9,44.3,39.0,49.3,43.9,38.7,100,99,90,30.25,30.08,2,0,2,0.04
2013-11-15,51.0,46.7,44.2,47.0,45.1,43.6,100,94,83,30.09,29.77,2,0,6,0.03
2013-11-16,53.0,48.5,43.4,52.2,47.3,43.1,100,96,79,29.93,29.72,4,0,7,0.38
2013-11-17,56.6,47.5,41.8,50.3,45.4,41.2,100,93,71,30.05,29.92,3,0,7,0.02
2013-11-18,55.7,47.7,41.9,52.1,47.0,41.6,100,98,81,30.01,29.77,3,0,7,0.53
2013-11-19,56.7,50.6,40.8,56.5,50.3,39.5,100,99,95,29.94,29.77,6,2,9,1.05
2013-11-20,46.1,39.7,32.8,42.1,37.4,31.5,98,92,78,30.23,29.94,4,1,6,0.00
2013-11-21,49.2,35.2,26.5,34.9,30.2,25.8,99,84,50,30.42,30.23,1,0,3,0.00
2013-11-22,56.6,38.5,25.8,40.1,31.2,25.1,99,78,37,30.41,30.19,1,0,2,0.01
2013-11-23,64.9,45.4,31.4,42.2,33.7,29.1,95,69,27,30.19,29.98,1,0,4,0.00
2013-11-24,56.6,41.3,30.9,42.4,36.6,30.4,99,85,53,30.22,30.03,1,0,3,0.01
2013-11-25,53.5,39.4,29.8,44.2,36.8,29.3,99,91,58,30.30,30.22,1,0,2,0.00
2013-11-26,52.4,40.7,32.2,48.2,39.4,32.0,100,95,83,30.23,29.99,0,0,1,0.00
2013-11-27,54.5,42.2,33.4,48.3,40.5,33.1,100,94,76,30.00,29.85,1,0,2,0.00
2013-11-28,56.7,43.6,34.0,49.8,41.6,33.7,100,93,73,30.15,29.92,2,0,3,0.00
2013-11-29,52.4,41.1,30.9,46.9,39.8,30.7,100,95,81,30.32,30.15,2,0,5,0.01
2013-11-30,49.1,44.4,39.7,47.7,44.0,39.2,100,99,94,30.38,30.30,2,0,3,0.01
2013-12-1,56.9,50.9,46.2,55.9,50.3,45.8,100,98,92,30.35,30.15,6,1,11,0.06
2013-12-2,53.4,45.4,35.4,53.1,44.8,35.1,100,98,91,30.15,30.00,6,2,9,1.10
2013-12-3,42.4,36.1,30.6,41.4,35.8,30.4,100,99,95,30.16,30.06,2,0,3,0.14
2013-12-4,36.5,29.4,24.2,31.0,27.4,23.5,99,93,75,30.26,30.16,2,0,3,0.01
2013-12-5,35.8,27.4,19.3,31.3,25.2,18.3,98,92,75,30.24,30.09,1,0,2,0.01
2013-12-6,42.4,34.8,30.7,42.0,34.2,29.0,100,97,92,30.09,29.81,5,1,10,0.43
2013-12-7,31.9,27.6,22.1,30.7,24.3,20.0,97,88,67,30.33,29.98,3,1,7,0.00
2013-12-8,35.4,25.5,17.1,26.0,20.9,15.9,98,83,60,30.54,30.32,2,0,6,0.01
2013-12-9,37.3,27.7,18.9,28.5,23.6,17.7,97,85,64,30.54,30.45,2,0,4,0.00
2013-12-10,42.5,30.2,22.3,35.8,28.1,21.3,98,92,75,30.48,30.30,2,0,3,0.00
2013-12-11,48.9,35.3,26.7,39.4,32.5,26.2,99,91,68,30.30,30.16,1,0,2,0.01
2013-12-12,43.0,35.4,27.4,42.4,34.8,26.9,100,98,88,30.23,30.12,1,0,3,0.39
2013-12-13,50.9,44.1,40.3,49.3,43.9,40.3,100,99,93,30.37,30.23,2,0,3,0.00
2013-12-14,46.3,41.1,35.8,46.3,41.1,35.8,100,100,99,30.43,30.36,3,0,4,0.01
2013-12-15,48.1,40.8,35.5,47.1,40.4,35.5,100,99,92,30.44,30.36,2,0,3,0.01
2013-12-16,49.0,39.5,32.0,46.8,39.1,31.8,100,99,91,30.38,30.13,2,0,3,0.01
2013-12-17,48.2,38.9,31.2,45.1,38.4,31.0,100,98,88,30.20,30.13,2,0,3,0.01
2013-12-18,45.4,40.6,36.2,45.2,40.2,36.0,100,98,84,30.15,30.03,6,1,12,0.02
2013-12-19,41.5,34.2,27.7,36.4,31.9,27.2,99,92,75,30.25,30.11,3,0,7,0.00
2013-12-20,46.9,38.0,29.2,46.9,36.7,28.7,100,95,76,30.21,30.01,2,0,3,0.31
2013-12-21,51.3,47.8,44.6,51.0,47.7,44.6,100,100,97,30.26,30.06,3,0,5,0.10
2013-12-22,55.1,47.6,43.9,53.3,47.2,43.9,100,99,90,30.36,30.25,2,0,3,0.00
2013-12-23,49.8,47.1,43.1,49.8,47.1,43.1,100,100,100,30.47,30.34,1,0,3,0.04
2013-12-24,50.2,43.4,34.6,49.1,43.2,34.3,100,99,96,30.50,30.34,2,0,4,0.02
2013-12-25,47.5,37.9,30.7,45.9,37.5,30.6,100,98,92,30.38,30.26,2,0,3,0.01
2013-12-26,50.9,39.1,30.9,47.1,38.3,30.9,100,97,86,30.29,30.15,1,0,2,0.01
2013-12-27,49.2,38.7,32.3,47.3,38.4,32.1,100,99,92,30.32,30.14,4,0,8,0.00
2013-12-28,45.0,39.4,31.5,43.7,38.9,30.5,100,98,91,30.41,30.32,1,0,3,0.01
2013-12-29,48.7,36.2,27.6,43.5,34.7,27.4,100,94,79,30.35,30.16,1,0,3,0.01
2013-12-30,47.3,38.1,32.8,44.9,37.5,32.5,100,98,91,30.22,30.14,1,0,2,0.00
2013-12-31,51.0,40.1,34.0,46.4,39.2,33.7,100,97,84,30.29,30.22,1,0,3,0.00
2014-1-1,51.2,39.1,30.1,48.4,38.2,29.9,100,97,84,30.27,30.17,1,0,2,0.01
2014-1-2,52.8,41.1,34.4,49.1,40.5,34.4,100,98,87,30.19,30.10,2,0,3,0.00